Location: Buffign�court
(47.8126°N, 6.0176°E)
Time: 19:59:09
(UTC+00:00)

CENTAUR R/B - Pass Details

Date: 16 June 2021
Orbit: 740 x 1447 km, 63.4° (Epoch: 17 July)

Event Time Altitude Azimuth Distance (km) Brightness Sun altitude
Rises 20:06:36 0° 214° (SW) 3,388 5.2 -4.6°
Reaches altitude 10° 20:08:53 10° 213° (SSW) 2,530 4.6 -4.9°
Maximum altitude 20:14:46 80° 127° (SE) 1,009 2.6 -5.6°
Drops below altitude 10° 20:21:54 10° 42° (NE) 3,033 5.1 -6.5°
Sets 20:24:51 0° 42° (NE) 4,107 5.8 -6.8°
